User: anonymous
Location: Unspecified
(0.0000°N, 0.0000°E)
Time: 07:59:58
(UTC+00:00)
Language:

PAKSAT 1R - Orbit

View from above orbital plane
View from above orbital plane
View from above satellite
View from above satellite

Ground track
Ground track

The orbit data is extracted from the following two-line orbital elements,

1 37779U 11042A   14293.87369696  .00000147  00000-0  00000+0 0  6734
2 37779 000.0535 046.7312 0003774 167.0343 168.0087 01.00272565 11714
Epoch (UTC): 20 October 2014 20:58:07
Eccentricity: 0.0003774
inclination: 0.0535°
perigee height: 35770 km
apogee height: 35802 km
right ascension of ascending node: 46.7312°
argument of perigee: 167.0343°
revolutions per day: 1.00272565
mean anomaly at epoch: 168.0087°
orbit number at epoch: 1171

The dashed part of the orbit path shows where the satellite is in the earth's shadow,  

DLR